GFSGL_sfc_dewp_075.txt.gz
Dewpoint
30 29 28 28 29 29 30 30 29 28 26 25 25 26 25 25 24 24 24 25 27 28 30 31 32 32 33 31 33 33 33 32 31 31 32 32 31 32 32 33 35 34 35
29 28 28 29 30 30 30 28 26 24 25 25 24 24 24 25 25 25 27 28 29 29 31 32 31 31 32 32 34 33 34 34 33 31 32 33 33 33 33 33 33 33 33
29 29 29 29 29 30 27 25 24 24 24 24 24 24 25 26 27 29 31 32 32 31 31 30 31 32 33 34 33 33 34 33 34 33 33 34 34 34 34 34 34 34 33
28 28 28 29 29 26 25 25 25 25 24 24 24 25 27 27 29 31 31 31 31 32 34 35 35 35 35 35 35 34 34 34 35 35 36 35 34 35 35 34 34 35 34
27 28 29 28 25 25 25 25 25 25 24 25 25 26 28 30 30 31 32 32 34 35 36 36 37 39 43 43 42 42 42 40 39 39 38 38 38 35 34 35 35 35 35
28 28 27 25 25 25 25 25 25 25 25 26 26 30 30 30 36 37 36 37 38 39 40 41 42 42 43 45 44 44 42 41 40 40 39 38 38 38 37 35 35 34 33
28 27 24 24 25 25 25 25 25 25 25 25 28 29 29 29 36 38 40 37 39 41 41 41 40 39 42 39 41 42 42 42 42 40 40 39 39 40 39 37 37 36 35
28 25 24 25 25 25 25 26 26 26 25 26 29 28 29 30 37 39 40 39 39 39 38 39 40 39 39 39 39 39 39 39 40 41 42 42 42 41 41 40 39 38 38
27 25 26 26 26 26 26 26 26 25 26 29 28 28 29 30 39 40 39 39 40 40 39 40 39 38 41 41 37 38 38 39 42 45 44 45 47 46 44 42 40 39 37
27 27 27 27 27 27 27 26 25 28 29 29 29 31 36 35 38 40 40 40 37 39 38 38 38 37 39 39 36 37 38 39 40 41 42 44 45 47 47 42 40 39 38
28 28 28 28 27 27 26 24 29 29 29 30 33 34 34 35 37 41 40 38 38 37 37 35 36 38 38 40 39 37 38 41 41 41 41 41 41 41 42 46 43 40 39
28 28 28 28 27 26 25 28 28 28 30 32 33 33 34 36 40 40 40 38 38 39 36 35 36 39 38 39 41 42 44 42 40 39 38 38 38 38 38 40 43 42 42
28 28 28 27 27 25 28 28 28 31 32 33 32 34 37 38 37 39 40 40 41 37 36 37 39 37 37 40 44 42 41 38 37 36 36 37 36 38 37 39 40 42 41
28 28 27 28 29 27 28 28 30 32 35 35 35 35 36 37 36 36 37 40 41 39 37 37 35 33 35 38 38 39 40 39 37 36 37 36 38 41 39 38 38 40 40
29 28 28 29 27 27 28 30 33 36 37 35 36 36 36 36 38 38 38 37 37 37 36 34 31 30 32 32 33 35 38 39 37 39 38 39 40 41 39 39 40 40 38
29 29 29 30 28 28 30 31 35 36 36 36 37 36 37 39 39 39 38 37 35 34 34 31 31 31 31 32 30 32 33 36 36 38 40 41 41 41 40 41 41 40 39
29 30 31 30 30 31 31 32 33 33 34 34 36 36 37 36 35 36 36 35 34 35 32 30 31 31 31 31 32 33 34 34 37 38 39 40 42 41 40 40 39 39 38
31 34 30 30 30 31 31 33 34 33 32 31 34 34 35 35 36 35 34 35 32 33 32 31 30 32 31 31 31 32 33 35 36 37 38 41 41 41 40 38 38 40 39
32 31 30 31 33 31 32 34 34 33 33 31 31 32 32 35 37 33 34 33 32 32 33 32 30 30 32 31 31 33 33 33 36 37 40 41 42 42 41 42 41 40 40
31 34 33 32 30 31 32 33 33 32 32 31 31 31 33 36 30 31 32 33 33 33 33 33 33 33 32 33 32 32 32 32 35 37 38 40 42 41 41 42 42 42 39
32 32 31 30 30 31 34 32 32 32 31 31 31 32 35 32 32 32 33 33 33 33 33 33 33 33 33 33 33 32 32 31 33 36 37 39 40 39 41 41 41 43 44
32 30 30 30 30 32 34 32 32 31 30 31 32 32 34 32 33 33 33 33 34 34 34 33 33 33 34 34 33 32 31 31 33 36 37 39 40 40 40 39 39 41 42
30 30 28 29 31 34 33 32 31 30 30 30 32 33 32 32 33 33 33 34 34 33 34 33 33 33 34 34 34 33 32 32 33 35 36 37 40 39 39 39 38 39 40
30 29 29 29 32 31 32 32 31 30 30 31 32 32 32 32 33 33 33 34 33 33 33 33 33 33 33 33 33 34 33 34 34 34 36 38 40 40 39 38 38 39 42
30 29 29 30 31 31 31 30 30 31 30 31 32 32 32 33 33 33 33 33 33 33 33 33 33 33 34 34 33 33 34 34 34 34 37 39 40 39 40 39 39 40 41
29 28 29 30 31 31 31 31 31 31 31 31 32 33 33 32 32 32 33 33 33 33 33 33 33 33 34 35 34 34 33 34 34 35 36 39 40 39 39 40 39 39 40

GFSGL_sfc_dewp_078.txt.gz
Dewpoint
29 29 28 29 29 30 30 29 27 26 25 25 25 25 25 25 24 24 24 25 25 26 28 29 30 31 32 34 35 33 32 32 31 31 32 32 32 32 32 33 35 34 35
29 28 29 29 30 29 29 27 25 24 25 25 25 25 25 25 25 25 26 26 28 30 31 31 31 30 29 31 33 32 33 33 33 31 32 33 32 33 33 33 33 33 34
29 28 28 29 29 29 26 25 24 24 24 25 24 24 25 26 27 27 28 31 32 31 31 31 31 31 31 31 32 33 34 33 33 33 33 34 34 34 34 34 34 34 34
28 28 28 29 27 25 25 25 25 25 24 24 24 25 27 27 30 31 31 31 31 31 31 33 33 34 34 35 35 35 35 35 35 35 36 36 35 35 35 34 34 35 34
28 28 28 27 25 24 25 25 25 25 25 25 25 26 27 30 29 30 31 32 32 33 35 37 38 39 43 42 40 40 40 39 39 39 38 38 38 38 36 36 35 35 35
28 28 28 25 25 25 25 25 25 25 25 26 26 26 29 29 34 36 34 36 37 38 38 39 41 41 41 44 43 43 43 41 41 40 39 38 38 39 39 38 36 35 34
28 28 26 25 25 26 25 25 26 26 26 26 25 27 29 29 36 37 37 37 39 40 40 39 38 38 41 40 42 43 42 42 42 39 38 38 39 39 38 39 38 37 35
28 27 25 25 26 26 26 26 26 26 26 25 27 29 29 29 36 38 39 38 38 39 39 39 39 39 38 39 38 38 38 38 39 39 39 39 39 41 41 40 39 37 37
27 27 26 26 26 27 27 27 27 25 27 28 28 29 28 30 38 39 38 38 40 38 38 38 39 37 40 40 36 37 37 37 40 41 41 44 44 45 46 43 40 39 38
28 27 27 27 27 27 27 27 25 29 28 29 29 30 35 34 38 39 39 39 37 39 36 37 40 38 39 38 35 36 36 36 38 38 39 41 43 43 44 42 41 40 39
29 28 28 28 28 28 27 25 28 28 28 29 31 32 32 33 35 39 41 37 37 37 38 37 36 39 38 39 39 36 36 37 37 38 39 41 41 42 42 43 43 41 39
30 28 28 28 27 27 26 28 28 28 29 31 32 32 32 35 38 39 41 39 39 37 37 37 36 39 38 37 36 41 44 43 41 39 37 37 38 38 39 41 44 43 43
28 28 28 28 28 26 27 27 28 29 31 33 34 34 33 34 36 40 40 40 41 40 39 39 38 37 35 34 37 42 43 40 38 34 34 34 36 37 37 38 40 43 42
28 28 28 28 31 27 28 28 29 31 33 35 35 34 36 34 36 37 38 40 39 37 38 37 37 34 32 32 32 35 36 38 39 35 36 39 39 36 37 38 38 40 39
29 29 29 30 29 28 29 29 32 33 36 34 33 35 35 35 36 38 37 37 36 35 35 34 30 30 27 29 31 31 33 33 35 35 37 39 39 40 40 40 39 40 39
30 29 30 30 29 29 30 30 33 35 36 36 35 34 36 37 38 36 37 35 35 34 33 30 29 29 31 29 27 28 30 32 32 33 36 38 39 40 41 40 39 39 38
30 31 30 30 30 30 30 30 31 33 34 35 35 34 34 34 34 38 36 34 34 34 32 31 29 29 31 31 29 27 30 33 33 35 37 38 39 41 41 39 39 40 39
32 34 30 29 30 31 30 31 32 33 30 31 33 33 33 34 37 33 34 34 31 33 33 32 31 29 28 31 30 27 29 31 33 34 36 37 40 40 40 38 37 39 39
31 31 31 31 30 31 31 32 33 31 30 30 30 31 32 35 35 33 33 32 32 32 33 32 33 32 30 31 31 29 30 30 33 35 35 37 40 42 41 40 40 39 39
31 33 32 29 29 30 31 33 30 30 30 30 30 31 32 36 30 30 31 33 33 33 33 33 33 33 33 33 32 31 31 31 33 34 35 37 40 41 41 41 41 40 39
31 30 32 29 29 30 32 31 30 30 29 29 30 31 35 32 30 31 32 33 33 33 33 33 33 33 32 34 33 32 31 31 32 35 35 37 38 40 40 42 42 43 39
30 29 29 29 29 30 32 30 30 30 30 30 30 31 33 31 32 32 32 33 33 34 33 33 33 33 33 33 34 32 31 30 31 35 35 35 38 39 39 39 42 42 43
29 29 28 28 30 32 30 29 28 30 30 30 30 31 31 31 32 32 32 33 33 33 34 33 33 33 33 33 34 34 32 30 32 34 33 34 37 39 39 38 40 42 42
29 28 28 29 30 29 29 30 30 30 30 30 30 31 32 32 32 33 32 33 33 33 33 33 33 33 33 32 32 34 34 33 32 34 33 35 38 39 39 37 40 42 42
29 27 27 28 28 30 29 29 30 30 30 30 31 32 32 32 31 32 32 33 33 33 33 33 33 33 34 34 32 33 34 34 32 33 34 36 38 39 39 38 40 42 41
29 28 27 28 29 29 30 30 30 30 30 30 32 31 31 30 31 32 32 32 32 32 33 33 33 33 35 35 35 33 33 34 33 34 35 36 39 39 40 39 40 41 41

GFSGL_sfc_dewp_081.txt.gz
Dewpoint
29 29 28 29 29 30 29 29 27 26 24 24 25 25 25 25 24 24 24 25 25 25 26 27 28 30 31 32 33 33 33 34 32 31 31 32 32 32 32 33 35 35 36
29 28 29 29 29 29 29 27 25 24 25 25 25 25 25 25 25 25 26 26 27 27 28 31 31 30 30 31 33 33 33 32 32 30 31 32 32 32 32 33 33 33 34
29 28 28 28 29 28 26 24 24 24 24 25 24 24 25 26 26 27 28 29 30 31 31 31 31 31 30 31 32 31 32 32 33 33 33 34 34 34 34 34 34 34 34
28 28 28 28 27 25 24 25 25 24 24 24 25 25 27 27 27 30 30 30 30 30 31 32 32 32 32 33 34 34 34 34 34 35 35 35 35 35 35 34 34 35 35
28 28 28 28 25 24 25 25 25 25 25 25 25 26 26 26 28 30 30 30 30 32 34 35 35 39 42 41 40 40 39 38 38 38 38 37 37 38 37 37 37 36 36
28 28 28 26 25 25 25 25 25 26 26 26 26 26 26 26 35 36 34 32 35 37 38 39 40 41 41 43 43 44 41 41 40 40 38 37 38 39 38 37 37 37 35
28 28 27 25 25 26 26 26 26 26 26 26 25 26 27 29 36 37 38 35 37 39 39 38 38 38 39 39 41 42 41 42 41 39 38 39 38 38 38 38 37 37 36
28 28 27 26 26 26 26 26 26 27 26 25 27 28 28 29 37 38 39 37 37 37 38 39 38 38 39 39 38 38 38 38 38 38 38 38 38 38 39 38 37 37 38
28 28 27 26 26 27 27 27 27 26 27 28 28 28 29 29 37 39 37 36 38 38 39 37 39 38 41 42 38 37 35 35 37 40 40 41 42 42 43 42 40 39 37
29 29 28 27 27 27 28 27 26 27 28 28 28 29 33 33 36 38 37 38 38 37 36 36 39 39 42 40 36 36 37 38 38 37 37 39 40 40 42 43 41 39 39
30 29 28 28 28 28 27 25 27 28 27 28 30 31 32 32 33 38 38 37 38 37 38 39 38 41 42 41 40 37 35 35 39 39 37 38 38 40 42 43 42 39 38
31 29 28 28 28 28 26 27 27 27 28 29 31 32 33 33 35 37 38 39 38 38 38 39 37 39 39 39 36 36 37 41 39 41 39 39 39 38 38 40 41 42 44
29 28 28 28 28 29 27 27 28 29 30 31 32 33 32 33 35 38 38 39 40 38 38 37 37 37 37 34 34 34 37 36 38 37 35 34 35 36 36 38 40 43 44
28 29 29 29 31 29 28 28 29 30 31 32 35 32 33 33 34 35 36 39 40 37 38 36 38 34 34 33 30 30 30 34 35 35 34 36 38 39 37 37 38 40 41
29 30 29 30 29 29 29 29 31 32 34 34 34 36 34 34 34 36 36 36 36 35 35 35 31 30 29 31 29 27 29 32 31 32 32 33 34 38 39 40 39 40 38
30 30 30 31 29 29 29 29 33 35 35 35 35 34 32 34 35 35 37 34 35 35 34 31 31 30 28 29 30 28 29 31 32 32 31 33 35 38 38 40 41 39 37
30 31 31 30 29 29 29 30 30 32 34 34 34 34 34 34 34 37 34 34 34 34 32 31 31 32 30 28 30 31 29 30 31 32 32 34 37 38 39 39 40 39 38
31 33 31 29 29 29 29 30 31 31 28 28 31 32 33 34 35 36 33 33 30 32 33 32 32 32 32 30 29 30 30 30 30 31 33 35 35 36 38 38 39 39 39
30 31 30 29 28 30 29 30 31 29 28 28 29 31 32 34 37 33 33 32 32 32 32 32 33 33 33 33 32 32 31 30 31 32 34 34 36 38 39 40 39 39 38
31 32 32 29 28 28 29 33 29 29 29 28 29 29 30 34 32 30 31 32 32 32 32 32 33 33 33 33 33 32 31 30 30 33 34 35 36 38 39 40 40 41 38
30 29 31 28 28 29 30 30 29 30 28 29 29 30 34 33 30 31 32 32 32 32 32 32 33 33 32 33 33 32 32 30 30 32 34 35 35 36 39 41 42 41 39
29 29 29 28 29 30 31 29 29 29 29 30 30 30 32 30 31 31 32 32 33 33 33 33 33 33 32 33 32 32 32 31 31 32 34 33 33 36 39 40 42 43 40
29 28 28 28 30 31 28 29 28 29 30 30 30 30 30 31 31 31 32 32 33 33 33 33 33 33 34 34 34 33 32 31 31 33 32 32 33 37 39 39 42 42 41
28 27 27 27 29 29 29 30 29 29 29 29 30 30 31 31 31 31 32 32 33 33 33 33 33 33 33 34 33 33 33 33 33 33 32 32 34 37 39 39 41 42 42
28 27 27 27 28 29 30 30 29 29 31 29 29 31 30 30 31 31 32 33 33 32 33 33 33 33 34 34 34 33 33 34 33 32 32 33 34 38 39 39 41 41 42
27 27 27 27 28 29 29 29 29 31 30 29 30 30 30 30 30 31 32 32 32 32 32 33 33 33 35 35 35 35 33 33 33 33 33 34 36 38 39 40 40 41 42

GFSGL_sfc_dewp_084.txt.gz
Dewpoint
29 28 28 29 29 29 29 28 27 26 24 24 25 25 25 25 25 24 24 25 25 26 26 27 27 28 29 31 32 32 32 32 30 30 32 32 32 32 32 34 37 36 37
29 28 29 30 29 29 29 27 25 24 24 24 25 25 25 25 25 25 25 26 26 27 28 29 30 31 31 31 32 31 31 32 32 30 31 31 32 32 32 32 33 33 34
29 29 28 28 29 28 25 24 24 24 24 25 25 25 25 26 26 26 27 27 29 29 30 30 30 31 30 31 31 31 32 32 32 32 31 32 33 34 34 34 34 34 34
28 28 28 28 27 25 24 24 24 24 24 24 25 25 26 27 27 27 27 29 30 29 30 31 31 31 31 32 32 32 33 33 34 34 34 33 34 35 35 34 34 34 34
28 28 28 28 26 24 25 25 25 25 25 25 26 26 26 26 25 27 30 30 30 31 31 32 34 37 41 40 39 40 40 38 37 37 37 37 37 36 36 37 36 37 37
28 28 29 27 26 25 25 26 26 26 26 26 26 26 26 26 34 36 34 31 33 34 36 37 39 42 40 42 43 42 42 40 40 39 37 35 37 39 39 38 38 37 34
28 28 28 27 26 26 26 26 26 26 26 26 26 26 27 28 35 37 38 34 36 37 38 39 36 38 39 37 41 42 41 42 40 38 38 38 38 38 38 38 38 37 36
28 28 28 27 26 26 26 27 27 27 27 26 27 28 28 28 37 38 39 36 36 36 37 38 38 38 38 38 38 38 38 37 38 37 37 37 38 38 38 38 37 37 37
28 28 28 28 26 27 27 27 27 27 25 28 28 28 28 29 37 38 35 35 37 37 38 38 37 37 40 40 38 38 37 37 38 41 41 42 42 41 42 39 38 37 36
29 29 29 28 27 27 28 27 27 25 28 28 27 28 32 32 36 38 37 37 37 37 37 37 39 40 41 42 38 38 37 38 38 35 35 37 38 38 40 39 39 38 38
30 30 29 28 28 28 28 27 26 27 28 27 28 30 31 33 34 36 37 35 36 38 37 38 38 40 39 39 41 40 38 37 35 38 37 38 39 38 39 40 41 41 39
31 29 28 28 28 28 28 27 27 28 27 28 30 31 32 33 36 36 38 38 38 36 38 37 37 39 39 38 36 36 35 35 36 35 37 39 39 39 40 41 42 42 43
30 28 29 29 29 30 28 27 28 28 28 30 31 32 34 33 33 35 36 37 40 38 37 36 38 38 37 35 35 35 33 33 35 34 35 35 35 36 36 36 38 39 40
29 29 29 29 31 30 29 29 28 29 30 31 33 34 32 35 33 34 34 38 40 37 38 38 37 35 34 33 32 31 27 30 32 34 33 33 34 36 37 38 36 38 40
30 30 30 30 29 28 28 29 30 31 33 33 35 32 33 33 32 35 35 36 34 34 35 35 32 31 30 30 30 31 31 29 29 31 31 31 32 34 35 38 39 38 38
30 30 30 31 29 28 28 28 32 34 34 33 33 32 32 34 35 36 37 37 35 34 33 31 30 30 30 30 29 29 32 30 29 30 31 31 31 33 34 37 39 40 38
29 30 31 30 29 28 28 28 29 31 33 32 33 33 34 34 34 34 38 34 34 33 32 31 31 32 32 32 31 29 29 30 29 28 30 31 32 35 36 36 38 38 39
30 33 30 29 28 27 28 28 29 31 28 27 29 31 33 34 34 36 33 33 30 31 31 31 32 32 32 32 32 31 30 31 30 30 30 33 34 34 34 35 37 37 38
30 30 29 29 28 29 28 29 32 29 29 29 28 30 31 33 36 33 32 30 31 30 32 32 32 32 33 32 33 33 32 32 30 31 32 33 34 34 34 36 37 39 39
30 31 31 28 27 28 28 31 28 29 29 28 29 29 30 34 30 29 29 31 31 32 32 32 32 33 33 33 32 32 32 31 29 31 32 33 34 35 35 36 37 39 39
29 29 31 28 27 29 30 29 29 29 28 28 29 29 33 31 29 30 30 31 32 31 32 32 32 32 33 33 33 32 32 31 30 30 31 32 34 33 34 37 40 41 39
28 28 28 27 28 30 30 29 29 29 28 29 29 28 31 29 30 30 30 31 32 33 33 33 32 33 33 33 32 32 31 31 29 31 31 32 32 33 35 38 40 40 39
28 27 27 27 28 30 28 30 29 28 28 29 28 28 29 29 29 30 30 31 32 32 33 33 33 33 34 34 35 34 32 31 31 31 31 31 31 33 36 38 40 41 40
28 27 27 27 28 28 28 29 29 28 28 31 28 28 30 29 30 30 31 32 32 33 33 33 33 33 33 34 35 34 34 33 33 33 31 31 32 33 36 39 41 41 41
27 26 26 26 28 28 28 28 29 29 28 30 28 29 30 29 30 30 31 32 32 32 32 33 33 33 34 34 35 35 34 34 33 32 32 31 32 34 37 39 40 42 41
26 25 26 27 26 28 29 28 28 28 28 29 29 31 29 30 30 31 32 32 32 32 32 32 32 33 34 35 35 36 35 34 33 33 32 32 33 35 38 40 40 41 42

GFSGL_sfc_dewp_087.txt.gz
Dewpoint
30 30 31 31 31 31 31 31 31 29 28 28 27 27 27 28 27 26 26 27 27 27 28 29 29 30 31 31 32 31 31 32 31 32 30 30 30 31 32 33 34 34 35
31 30 30 31 31 31 30 29 27 27 27 27 26 27 26 26 27 26 26 26 26 27 27 29 30 29 31 32 32 32 31 31 32 30 31 31 32 33 32 32 32 32 34
30 30 30 30 30 30 28 26 25 25 25 26 26 26 26 27 27 27 27 26 26 26 27 29 30 31 31 32 32 33 33 32 33 33 33 33 34 34 34 34 35 35 34
30 30 30 30 29 28 26 26 25 25 25 26 26 27 27 27 27 27 27 27 28 30 30 31 31 31 32 33 33 34 33 34 36 36 37 35 35 35 35 35 35 35 36
29 30 30 30 29 27 27 26 26 26 26 27 27 27 28 27 25 28 31 31 31 31 32 31 32 35 40 40 39 39 38 38 38 37 37 37 38 36 37 37 37 37 37
29 29 31 30 29 28 27 26 27 28 28 28 27 27 27 26 33 37 35 31 33 34 35 36 37 40 40 41 41 42 41 40 39 40 37 37 37 39 39 39 37 36 34
28 29 29 29 29 29 28 28 29 29 28 28 28 27 28 28 35 36 37 34 36 37 38 38 37 35 39 37 40 41 40 41 41 40 39 39 38 37 36 35 37 38 36
28 29 29 29 29 29 28 28 29 29 29 28 27 28 29 29 35 38 39 36 35 34 36 37 39 38 37 37 37 37 37 36 38 37 37 36 37 36 37 36 35 35 36
29 29 30 30 30 29 29 29 29 29 28 27 28 29 28 28 36 38 36 34 36 37 37 39 38 38 40 41 38 39 40 39 41 43 41 41 42 40 40 40 39 38 36
30 30 30 29 29 29 30 30 29 28 27 29 28 27 31 31 35 38 36 35 37 38 35 35 40 40 43 41 39 38 37 38 39 39 39 38 38 38 40 40 39 37 37
31 31 31 29 29 30 30 30 29 28 29 28 28 29 30 32 33 38 38 34 37 36 38 38 39 40 40 39 40 39 38 37 37 36 35 35 38 40 39 39 40 39 38
32 31 29 30 30 29 31 30 29 29 30 28 30 30 31 32 35 35 37 36 37 37 38 39 37 39 40 40 37 36 36 36 36 33 34 36 36 39 39 41 41 42 43
31 31 30 30 30 32 30 29 29 29 30 30 31 31 32 33 32 37 37 38 39 39 37 36 40 40 38 36 35 35 36 34 30 31 32 33 34 35 36 37 39 40 40
31 31 31 30 33 31 30 30 30 30 31 31 33 34 35 32 35 34 34 38 40 40 38 38 36 34 34 33 32 31 30 30 29 30 31 31 32 33 33 35 36 37 39
31 30 30 32 32 30 30 29 31 32 33 33 33 33 32 32 33 35 36 35 37 36 36 34 32 30 30 31 31 31 29 30 30 29 29 30 30 30 30 33 36 37 38
30 31 31 32 31 30 29 28 31 33 33 33 33 32 32 34 35 35 35 38 36 35 33 30 29 30 30 30 31 31 30 29 29 29 28 30 30 32 33 34 36 37 38
30 30 31 30 30 29 29 29 29 30 32 32 31 32 33 33 34 34 37 34 33 33 31 30 30 30 33 31 32 33 30 31 30 29 28 30 31 31 33 35 35 36 37
30 32 31 31 30 29 29 29 29 31 28 28 30 31 32 32 34 35 32 32 30 30 31 32 32 32 33 31 32 31 32 32 31 30 28 30 33 35 33 34 34 35 35
30 30 31 31 30 29 29 29 29 29 29 28 28 29 29 32 36 32 32 29 31 31 31 32 33 33 32 33 33 33 32 31 31 31 31 31 33 35 33 34 34 36 36
29 31 30 29 28 29 29 30 27 28 28 27 28 29 30 34 28 28 29 30 31 31 32 32 32 33 33 33 34 33 32 30 30 31 30 31 34 35 34 34 34 34 36
29 28 29 27 28 29 30 28 28 29 28 28 29 29 31 29 29 29 30 31 31 32 32 32 32 33 33 33 34 33 31 31 30 30 30 31 32 32 34 35 36 38 39
28 28 27 28 29 29 30 28 30 29 28 29 30 28 30 28 29 30 31 31 32 33 33 33 32 33 33 33 33 33 32 30 30 30 30 31 31 32 33 35 37 40 38
27 27 27 28 27 29 28 28 29 29 29 28 29 29 27 30 30 30 31 32 33 33 33 33 33 33 34 34 35 35 33 31 30 31 31 31 32 32 34 35 38 40 39
26 26 26 27 28 28 28 27 27 28 27 27 29 28 30 30 30 31 32 33 33 33 34 33 33 33 33 34 34 35 35 34 32 32 32 32 32 33 34 36 39 41 40
25 25 26 28 28 27 26 27 27 27 27 28 28 29 30 30 30 31 32 33 33 33 33 33 33 34 34 34 35 35 35 35 34 33 33 32 32 32 34 38 40 42 40
24 24 26 28 28 26 27 27 27 28 28 28 28 29 30 30 31 32 32 33 32 32 33 33 33 33 34 34 35 36 36 36 34 32 33 33 33 34 36 39 41 42 41

GFSGL_sfc_dewp_090.txt.gz
Dewpoint
32 32 32 31 31 31 32 33 33 33 32 31 30 29 29 29 28 27 27 27 27 28 28 28 28 28 28 29 29 29 29 29 27 29 28 28 28 29 29 30 32 32 33
32 31 31 32 32 31 31 30 30 30 30 28 27 27 27 27 28 27 27 27 27 27 27 27 26 24 28 28 29 30 30 30 31 30 30 30 31 31 31 32 32 31 32
30 30 31 31 31 31 30 29 28 27 27 26 27 27 28 28 28 28 27 27 27 26 26 25 26 26 26 27 28 29 31 31 33 33 32 32 33 34 35 35 34 35 34
30 30 31 30 31 31 30 28 27 26 25 26 27 28 29 28 28 28 28 27 28 28 29 29 28 28 28 29 29 30 31 34 36 38 39 37 36 37 38 37 35 36 36
28 30 30 30 31 29 29 28 27 26 27 28 28 29 29 29 27 28 30 32 31 28 27 27 29 33 37 37 37 39 41 39 39 38 38 37 37 38 38 37 37 38 38
28 28 31 31 30 31 30 29 29 30 30 30 29 29 30 28 32 35 36 32 29 29 30 34 35 38 38 41 41 41 41 40 40 40 38 37 37 39 37 38 37 37 36
27 29 30 30 30 31 30 30 31 31 30 30 30 30 29 29 35 37 36 32 33 35 38 36 32 31 37 35 37 40 39 40 40 39 38 39 39 38 36 37 35 37 35
27 28 30 30 31 31 31 31 31 30 31 31 30 29 31 31 34 34 37 34 34 32 34 36 37 36 36 37 36 36 35 35 37 37 36 35 35 34 37 35 34 35 36
28 29 30 31 31 31 32 32 31 31 31 31 30 31 29 25 31 36 36 33 35 34 34 35 35 36 39 41 39 39 39 40 42 42 43 42 42 43 42 41 40 39 38
30 31 31 31 31 32 32 33 33 32 31 31 29 27 27 26 32 35 36 36 35 36 33 33 38 40 41 41 39 39 38 39 40 39 36 37 38 37 39 36 38 38 36
32 32 32 32 32 32 33 33 32 31 30 29 25 24 27 29 31 36 36 35 35 34 38 39 39 40 40 39 39 40 40 39 36 35 34 36 35 34 38 41 41 40 38
33 33 32 32 32 31 33 33 31 30 29 26 25 27 29 29 35 37 35 36 36 36 37 38 37 37 38 38 37 38 37 37 37 38 36 35 33 35 39 40 41 41 42
33 32 32 32 31 32 32 31 30 29 26 26 27 30 31 33 30 33 36 36 38 39 39 36 38 39 37 35 35 35 37 33 32 33 30 30 32 34 33 35 37 39 40
31 31 31 31 32 31 31 30 27 27 28 29 31 33 32 31 31 31 32 39 39 38 40 38 37 36 34 33 32 32 30 29 31 29 28 28 31 32 31 33 35 36 38
31 30 30 31 30 29 27 25 28 29 31 33 34 33 32 31 30 35 36 35 38 35 36 33 32 30 29 30 30 31 32 31 28 28 29 28 28 29 29 32 32 34 35
30 29 29 28 26 26 25 26 29 31 33 34 32 31 30 33 34 35 34 37 33 34 32 31 29 29 29 29 31 29 30 31 31 28 28 28 28 29 29 32 35 35 35
29 29 29 26 24 25 27 28 28 29 31 30 30 31 33 33 34 33 37 33 33 32 31 31 30 31 33 31 32 30 33 30 31 30 28 28 28 30 32 33 34 36 35
30 30 27 26 27 28 28 28 28 27 26 26 29 30 30 31 32 35 31 31 28 29 30 31 31 31 31 31 30 32 31 31 31 31 29 29 31 32 33 34 34 34 34
29 26 26 26 27 29 28 28 27 26 26 26 27 28 29 31 34 31 30 29 30 31 31 32 32 32 31 31 33 33 32 31 31 31 32 32 32 32 34 34 34 36 35
27 27 28 26 27 28 28 28 26 26 26 27 27 28 28 32 28 27 28 30 30 31 32 32 32 32 33 33 34 34 34 31 31 31 30 30 32 34 34 35 35 34 34
26 26 27 26 27 28 29 28 27 28 27 28 28 27 31 28 28 29 30 31 32 32 32 33 33 33 33 33 34 34 33 31 31 31 29 30 31 32 34 35 35 35 35
25 24 25 27 28 28 28 27 28 28 27 27 28 26 29 27 29 30 31 32 33 34 35 34 34 33 33 33 33 32 33 32 31 31 30 31 32 32 34 35 35 36 39
22 23 24 25 27 29 28 28 28 26 27 26 27 26 27 29 30 30 32 33 34 34 34 34 34 33 34 34 33 33 33 34 32 32 31 31 31 33 33 34 35 37 39
22 22 23 26 28 27 28 28 26 26 26 26 26 27 28 29 31 32 33 34 34 34 34 34 34 33 33 34 34 35 35 35 35 33 31 31 33 34 34 35 36 39 40
22 23 25 27 27 27 27 26 27 27 27 26 26 28 29 30 31 31 33 33 34 33 34 34 34 34 34 35 34 35 35 36 35 34 32 32 33 34 34 35 37 40 40
23 23 25 27 27 27 27 27 28 28 27 28 28 30 30 31 31 32 33 33 34 34 33 34 34 34 34 34 35 35 36 36 35 35 32 33 34 35 35 36 38 41 41

GFSGL_sfc_dewp_093.txt.gz
Dewpoint
37 36 34 33 32 31 32 33 33 33 32 31 30 30 29 29 28 27 27 27 27 27 30 30 29 30 31 31 32 31 31 31 30 30 31 30 28 30 30 32 34 33 33
33 32 31 31 31 31 30 30 29 29 30 29 28 28 27 27 27 27 27 26 26 28 28 29 29 26 30 30 30 30 30 30 30 30 31 31 32 33 32 34 33 32 34
30 31 31 31 30 30 29 29 27 26 26 26 26 27 27 28 28 27 27 27 27 27 28 28 28 28 28 29 29 29 30 29 31 32 31 33 34 34 36 36 36 36 35
30 30 31 30 31 30 29 27 26 25 25 24 25 26 28 28 28 29 29 29 28 28 29 31 30 29 29 29 29 29 29 31 33 36 37 37 37 38 37 37 37 38 37
28 30 30 30 29 28 28 27 27 26 25 26 27 28 29 29 28 29 30 30 31 31 31 27 28 31 38 38 34 38 40 40 39 38 38 38 37 37 37 37 39 38 37
27 28 30 29 29 30 29 29 29 29 29 29 29 29 30 29 35 35 35 33 32 30 30 30 33 38 38 41 40 40 39 38 40 39 38 37 37 38 39 38 37 37 34
25 27 28 28 29 29 29 29 31 31 30 30 30 30 30 30 35 37 37 32 31 32 34 35 32 31 36 34 37 39 38 39 40 39 38 38 38 39 39 37 37 37 35
24 25 27 28 29 29 30 30 30 30 30 31 31 31 31 31 36 35 33 31 32 32 33 34 35 34 36 36 36 36 37 38 37 37 37 38 40 40 40 39 39 38 38
25 26 28 29 29 30 31 32 32 31 31 31 31 31 31 29 31 32 33 31 33 35 35 35 35 35 38 41 38 38 39 40 40 42 42 43 44 43 42 41 39 38 37
27 29 29 30 31 31 32 32 33 32 32 31 30 29 30 24 31 33 33 35 35 35 34 34 37 37 39 39 38 38 37 38 39 39 39 38 38 37 39 37 37 36 36
30 30 31 31 31 32 32 33 33 32 31 30 29 26 24 26 29 34 36 35 36 35 35 37 38 38 39 39 39 39 38 38 41 40 38 35 35 36 38 37 38 38 37
31 32 31 31 31 30 32 32 31 31 30 29 24 24 26 28 33 35 35 36 35 35 36 38 38 38 38 39 38 38 37 36 37 36 35 35 36 36 35 36 39 40 41
31 31 31 30 30 30 30 30 30 29 26 24 25 27 30 32 31 33 34 35 36 37 38 39 38 38 38 37 37 36 36 36 34 33 32 34 34 31 31 34 34 35 37
30 30 30 30 30 30 29 29 26 24 26 27 30 32 33 31 31 31 31 36 38 37 38 37 36 35 35 33 32 32 31 32 32 30 30 32 30 31 30 31 31 32 34
30 29 29 29 28 27 24 24 25 26 30 32 33 34 32 31 31 33 35 34 35 37 34 33 32 31 30 30 31 31 33 32 32 32 28 29 30 28 27 29 30 30 32
29 28 28 28 26 23 23 24 29 31 33 32 32 30 30 33 34 35 35 34 38 35 33 32 30 31 31 31 33 31 33 31 32 32 31 29 28 28 28 29 31 32 33
29 28 29 26 24 25 25 26 28 29 31 31 32 31 31 32 33 34 34 36 34 33 31 31 31 32 32 32 32 31 31 31 33 31 31 30 29 29 29 29 31 33 34
30 31 26 25 25 25 26 29 28 29 27 27 29 30 30 31 32 33 34 32 30 31 31 31 32 32 32 33 33 33 32 32 32 31 31 31 31 31 31 30 33 34 34
30 26 25 25 25 27 28 29 29 28 26 27 26 28 29 30 32 32 30 29 30 31 32 33 33 33 33 33 33 33 33 32 32 32 32 32 33 33 32 33 35 36 36
26 26 26 25 25 26 27 29 30 29 28 27 26 28 29 31 31 27 28 31 32 33 33 33 34 34 34 34 33 33 33 32 32 32 31 31 31 31 32 33 35 35 34
26 24 26 24 26 27 28 30 26 28 28 27 27 27 30 28 28 29 30 33 33 33 33 33 33 33 34 34 33 33 33 33 33 32 31 31 30 31 31 33 35 36 34
24 22 24 25 26 28 29 28 28 27 27 27 27 27 29 26 28 29 31 33 33 33 34 34 33 33 33 33 33 33 32 32 33 32 31 31 30 31 31 33 34 35 36
21 22 22 24 27 29 27 27 27 27 28 28 27 27 27 28 29 30 31 32 33 34 35 34 34 33 34 34 34 34 33 32 34 32 32 31 31 31 31 32 34 35 36
22 22 23 25 28 27 27 26 27 27 27 27 27 27 28 30 31 32 32 33 34 34 35 35 34 34 34 34 34 35 33 35 35 35 33 33 31 31 33 33 34 35 37
23 22 23 26 27 27 27 27 27 27 27 27 27 28 29 31 31 32 32 33 34 34 34 34 34 34 34 34 34 35 34 35 35 35 35 33 31 32 33 34 35 38 38
23 22 24 26 26 26 28 28 28 28 28 27 28 28 29 30 31 31 32 33 34 33 33 33 33 33 34 34 35 35 36 35 35 36 35 33 32 33 34 35 36 37 39

GFSGL_sfc_dewp_096.txt.gz
Dewpoint
40 40 37 38 36 34 34 35 35 33 33 31 30 30 30 29 28 27 27 27 27 28 28 29 29 29 30 31 32 31 31 31 29 29 30 30 29 29 31 32 34 33 34
37 33 33 32 32 31 31 31 31 31 31 29 29 28 27 27 28 27 28 27 27 27 28 29 29 28 28 29 30 29 30 30 30 28 28 30 31 31 31 32 34 33 34
32 33 32 31 31 30 29 28 27 26 26 27 27 27 27 28 28 29 28 28 28 28 28 28 28 28 28 29 29 29 30 29 29 29 28 31 32 33 34 36 36 36 37
32 32 32 31 31 30 28 27 26 25 25 24 25 27 29 29 29 29 29 30 29 29 31 32 32 30 29 27 28 30 31 31 34 36 36 36 36 37 36 36 36 37 37
31 31 30 30 29 28 28 28 27 27 26 27 27 28 29 30 29 29 31 31 31 32 33 31 30 32 37 37 36 37 36 38 39 39 38 37 37 36 36 36 37 37 38
29 31 30 29 30 30 30 29 29 30 30 29 29 29 30 30 36 37 37 33 33 33 31 30 33 36 36 38 39 39 39 37 38 39 38 38 38 38 39 38 35 35 35
27 28 28 28 29 29 30 29 30 31 30 30 30 30 31 31 36 37 38 33 31 30 32 33 32 31 35 34 37 39 39 39 39 38 38 40 38 38 38 36 36 37 36
25 26 27 28 29 30 30 31 31 31 31 31 31 31 31 32 36 37 36 29 31 31 30 31 34 34 34 35 35 36 36 37 37 37 37 37 37 39 40 40 40 40 40
26 26 28 29 29 31 32 32 32 32 32 32 32 31 31 30 34 33 31 31 33 33 34 34 34 34 38 39 37 38 37 38 40 42 41 41 42 44 43 42 40 39 37
29 29 30 30 31 31 32 32 33 33 32 32 31 31 33 27 32 33 33 31 34 34 36 35 38 36 39 39 37 38 36 37 39 38 37 39 40 39 41 38 38 36 35
30 31 31 31 31 31 32 32 32 32 32 31 31 29 25 27 29 34 35 34 34 33 34 35 36 39 39 39 39 38 39 39 39 39 39 39 37 37 36 36 38 37 36
32 32 31 31 31 30 30 31 31 31 30 29 25 25 29 29 34 34 35 35 35 35 38 36 37 40 40 39 38 39 38 38 37 38 36 36 35 35 36 38 38 38 39
31 31 30 30 30 30 30 30 30 29 26 26 28 29 30 32 32 33 34 34 35 35 36 37 38 37 37 35 36 36 36 34 33 32 32 32 33 36 34 33 35 36 35
30 30 30 29 30 29 28 27 25 26 26 29 28 30 31 33 30 31 31 34 37 37 36 38 37 35 34 32 31 31 30 32 32 33 34 33 31 32 30 31 32 32 34
30 29 29 29 29 26 24 25 26 27 31 31 31 32 32 31 32 34 35 33 34 34 37 34 33 31 30 30 31 32 33 32 32 32 32 32 30 30 30 30 29 30 31
29 29 29 29 27 25 26 26 31 32 33 32 31 30 29 33 34 35 35 35 35 37 33 33 31 31 31 31 32 31 32 31 32 31 32 32 32 30 29 28 29 31 31
29 29 29 27 26 26 26 27 27 29 31 31 31 31 31 32 33 33 34 35 33 32 31 30 31 32 32 33 32 32 32 32 32 31 31 31 31 31 29 30 30 31 31
31 33 26 26 27 27 27 28 29 29 28 26 28 29 30 30 31 32 34 30 29 30 32 32 32 33 33 33 33 33 33 32 31 32 31 31 32 32 30 30 31 31 33
31 27 26 27 27 27 28 28 29 29 29 27 27 28 28 30 31 33 32 28 29 32 32 32 33 33 33 33 33 33 33 31 32 33 33 33 33 32 32 33 32 34 36
28 28 27 26 26 28 28 28 27 26 26 27 26 26 26 29 29 27 27 29 32 33 32 32 33 33 33 33 33 34 32 31 31 32 32 32 32 31 31 31 32 33 35
27 27 26 25 27 28 30 28 26 25 27 26 27 27 29 27 26 27 29 30 31 33 32 32 32 33 33 33 33 33 32 32 32 33 33 32 31 30 31 32 33 33 35
26 24 25 26 28 30 28 25 25 26 26 27 27 27 30 26 27 29 30 31 32 33 34 34 33 33 33 33 33 32 32 32 33 33 33 32 31 30 31 32 31 33 34
24 24 24 26 29 28 26 26 25 26 27 27 26 26 27 28 29 30 31 32 32 33 34 34 34 33 34 34 34 34 32 32 33 33 33 33 32 31 29 32 32 32 34
24 24 24 26 28 26 26 26 25 26 27 26 26 27 27 27 29 30 31 32 32 33 34 34 34 34 34 34 34 34 34 34 34 34 35 33 33 32 30 31 32 33 35
25 24 25 27 26 26 26 26 26 27 27 27 27 27 28 29 30 31 31 32 33 33 33 33 33 33 33 33 34 35 35 35 35 35 35 34 33 32 30 30 32 34 36
25 24 25 26 26 26 26 26 26 29 29 28 29 29 30 30 31 31 32 33 33 33 33 33 33 33 33 34 34 35 35 36 35 35 35 35 33 32 32 33 33 35 37